Time,TemperatureF,DewpointF,PressureIn,WindDirection,WindDirectionDegrees,WindSpeedMPH,WindSpeedGustMPH,Humidity,HourlyPrecipIn,Conditions,Clouds,dailyrainin,SoftwareType,DateUTC
2013-05-20 00:00:00,81.3,68.0,29.76,ENE,75,2.0,2.0,64,0.00,,,0.00,Wunderground v.1.15,2013-05-20 05:00:00,
2013-05-20 00:10:00,80.9,68.0,29.76,ESE,119,1.0,1.0,65,0.00,,,0.00,Wunderground v.1.15,2013-05-20 05:10:00,
2013-05-20 00:15:00,80.7,67.8,29.76,East,94,1.0,15.0,65,0.00,,,0.00,Wunderground v.1.15,2013-05-20 05:15:00,
2013-05-20 00:25:00,80.6,67.7,29.76,SE,136,1.0,15.0,65,0.00,,,0.00,Wunderground v.1.15,2013-05-20 05:25:00,
2013-05-20 00:35:00,80.2,67.8,29.76,South,175,1.0,3.0,66,0.00,,,0.00,Wunderground v.1.15,2013-05-20 05:35:00,
2013-05-20 00:45:00,80.1,68.2,29.75,SSE,147,1.0,3.0,67,0.00,,,0.00,Wunderground v.1.15,2013-05-20 05:45:00,
2013-05-20 00:55:00,79.6,68.5,29.75,SSW,198,2.0,15.0,69,0.00,,,0.00,Wunderground v.1.15,2013-05-20 05:55:00,
2013-05-20 01:00:00,79.4,68.8,29.75,SSW,209,2.0,2.0,70,0.00,,,0.00,Wunderground v.1.15,2013-05-20 06:00:00,
2013-05-20 01:10:00,79.2,69.0,29.75,ENE,65,1.0,10.0,71,0.00,,,0.00,Wunderground v.1.15,2013-05-20 06:10:00,
2013-05-20 01:20:00,78.7,69.3,29.75,SSE,161,2.0,2.0,73,0.00,,,0.00,Wunderground v.1.15,2013-05-20 06:20:00,
2013-05-20 01:25:00,78.5,69.5,29.75,East,83,2.0,10.0,74,0.00,,,0.00,Wunderground v.1.15,2013-05-20 06:25:00,
2013-05-20 01:35:00,78.1,69.5,29.75,East,98,2.0,10.0,75,0.00,,,0.00,Wunderground v.1.15,2013-05-20 06:35:00,
2013-05-20 01:45:00,77.8,69.6,29.75,SSW,200,2.0,10.0,76,0.00,,,0.00,Wunderground v.1.15,2013-05-20 06:45:00,
2013-05-20 01:50:00,77.7,69.5,29.75,South,172,2.0,2.0,76,0.00,,,0.00,Wunderground v.1.15,2013-05-20 06:50:00,
2013-05-20 02:00:00,77.4,69.2,29.74,WNW,301,2.0,2.0,76,0.00,,,0.00,Wunderground v.1.15,2013-05-20 07:00:00,
2013-05-20 02:10:00,77.1,69.3,29.75,SSW,194,1.0,11.0,77,0.00,,,0.00,Wunderground v.1.15,2013-05-20 07:10:00,
2013-05-20 02:20:00,76.9,69.1,29.74,SSE,160,2.0,11.0,77,0.00,,,0.00,Wunderground v.1.15,2013-05-20 07:20:00,
2013-05-20 02:30:00,76.6,69.2,29.74,SSE,157,2.0,11.0,78,0.00,,,0.00,Wunderground v.1.15,2013-05-20 07:30:00,
2013-05-20 02:35:00,76.4,69.0,29.74,SSW,207,2.0,11.0,78,0.00,,,0.00,Wunderground v.1.15,2013-05-20 07:35:00,
2013-05-20 02:45:00,76.2,69.2,29.74,WSW,244,2.0,5.0,79,0.00,,,0.00,Wunderground v.1.15,2013-05-20 07:45:00,
2013-05-20 02:55:00,76.1,69.1,29.74,SSW,196,1.0,11.0,79,0.00,,,0.00,Wunderground v.1.15,2013-05-20 07:55:00,
2013-05-20 03:00:00,75.9,68.9,29.74,SSE,147,2.0,2.0,79,0.00,,,0.00,Wunderground v.1.15,2013-05-20 08:00:00,
2013-05-20 03:10:00,75.7,69.1,29.74,South,182,2.0,2.0,80,0.00,,,0.00,Wunderground v.1.15,2013-05-20 08:10:00,
2013-05-20 03:15:00,75.7,69.1,29.74,SW,232,2.0,13.0,80,0.00,,,0.00,Wunderground v.1.15,2013-05-20 08:15:00,
2013-05-20 03:25:00,75.6,69.0,29.74,SW,217,2.0,13.0,80,0.00,,,0.00,Wunderground v.1.15,2013-05-20 08:25:00,
2013-05-20 03:35:00,75.6,69.0,29.74,SSW,208,1.0,13.0,80,0.00,,,0.00,Wunderground v.1.15,2013-05-20 08:35:00,
2013-05-20 03:45:00,75.5,68.9,29.74,SW,232,2.0,13.0,80,0.00,,,0.00,Wunderground v.1.15,2013-05-20 08:45:00,
2013-05-20 03:55:00,75.6,69.0,29.74,South,183,2.0,5.0,80,0.00,,,0.00,Wunderground v.1.15,2013-05-20 08:55:00,
2013-05-20 04:00:00,75.6,69.0,29.74,NW,320,2.0,2.0,80,0.00,,,0.00,Wunderground v.1.15,2013-05-20 09:00:00,
2013-05-20 04:10:00,75.6,69.0,29.74,South,175,2.0,2.0,80,0.00,,,0.00,Wunderground v.1.15,2013-05-20 09:10:00,
2013-05-20 04:20:00,75.6,69.0,29.74,SSE,160,1.0,1.0,80,0.00,,,0.00,Wunderground v.1.15,2013-05-20 09:20:00,
2013-05-20 04:30:00,75.6,69.0,29.74,SE,135,2.0,14.0,80,0.00,,,0.00,Wunderground v.1.15,2013-05-20 09:30:00,
2013-05-20 04:40:00,75.6,69.0,29.74,SSW,208,2.0,2.0,80,0.00,,,0.00,Wunderground v.1.15,2013-05-20 09:40:00,
2013-05-20 04:50:00,75.8,69.2,29.74,WSW,246,2.0,2.0,80,0.00,,,0.00,Wunderground v.1.15,2013-05-20 09:50:00,
2013-05-20 05:00:00,75.7,69.1,29.74,SSE,167,2.0,2.0,80,0.00,,,0.00,Wunderground v.1.15,2013-05-20 10:00:00,
2013-05-20 05:10:00,75.7,69.1,29.74,SSW,192,2.0,2.0,80,0.00,,,0.00,Wunderground v.1.15,2013-05-20 10:10:00,
2013-05-20 05:20:00,75.8,69.2,29.75,West,266,1.0,1.0,80,0.00,,,0.00,Wunderground v.1.15,2013-05-20 10:20:00,
2013-05-20 05:30:00,75.8,69.2,29.75,South,179,1.0,10.0,80,0.00,,,0.00,Wunderground v.1.15,2013-05-20 10:30:00,
2013-05-20 05:35:00,75.8,69.2,29.75,South,180,1.0,10.0,80,0.00,,,0.00,Wunderground v.1.15,2013-05-20 10:35:00,
2013-05-20 05:45:00,75.8,69.2,29.75,SE,136,1.0,6.0,80,0.00,,,0.00,Wunderground v.1.15,2013-05-20 10:45:00,
2013-05-20 05:55:00,75.7,69.5,29.75,ESE,112,1.0,10.0,81,0.00,,,0.00,Wunderground v.1.15,2013-05-20 10:55:00,
2013-05-20 06:00:00,75.8,69.2,29.76,SSW,205,1.0,1.0,80,0.00,,,0.00,Wunderground v.1.15,2013-05-20 11:00:00,
2013-05-20 06:10:00,75.7,69.5,29.76,SSW,198,1.0,1.0,81,0.00,,,0.00,Wunderground v.1.15,2013-05-20 11:10:00,
2013-05-20 06:15:00,75.6,69.4,29.76,SSE,150,1.0,12.0,81,0.00,,,0.00,Wunderground v.1.15,2013-05-20 11:15:00,
2013-05-20 06:25:00,75.5,69.3,29.76,ESE,113,2.0,12.0,81,0.00,,,0.00,Wunderground v.1.15,2013-05-20 11:25:00,
2013-05-20 06:35:00,75.4,69.5,29.76,SW,226,2.0,12.0,82,0.00,,,0.00,Wunderground v.1.15,2013-05-20 11:35:00,
2013-05-20 06:45:00,75.4,69.5,29.76,SW,234,1.0,12.0,82,0.00,,,0.00,Wunderground v.1.15,2013-05-20 11:45:00,
2013-05-20 06:55:00,75.3,69.4,29.77,ESE,115,1.0,5.0,82,0.00,,,0.00,Wunderground v.1.15,2013-05-20 11:55:00,
2013-05-20 07:00:00,75.3,69.4,29.77,SW,221,1.0,1.0,82,0.00,,,0.00,Wunderground v.1.15,2013-05-20 12:00:00,
2013-05-20 07:10:00,75.4,69.5,29.78,SW,223,1.0,1.0,82,0.00,,,0.00,Wunderground v.1.15,2013-05-20 12:10:00,
2013-05-20 07:20:00,75.5,69.6,29.78,SSW,199,1.0,1.0,82,0.00,,,0.00,Wunderground v.1.15,2013-05-20 12:20:00,
2013-05-20 07:30:00,75.6,69.4,29.78,SSW,210,1.0,1.0,81,0.00,,,0.00,Wunderground v.1.15,2013-05-20 12:30:00,
2013-05-20 07:40:00,75.6,69.4,29.78,SE,140,1.0,13.0,81,0.00,,,0.00,Wunderground v.1.15,2013-05-20 12:40:00,
2013-05-20 07:45:00,75.7,69.5,29.78,ESE,120,2.0,13.0,81,0.00,,,0.00,Wunderground v.1.15,2013-05-20 12:45:00,
2013-05-20 07:50:00,75.7,69.5,29.79,SW,215,1.0,1.0,81,0.00,,,0.00,Wunderground v.1.15,2013-05-20 12:50:00,
2013-05-20 08:00:00,76.0,69.7,29.79,ESE,119,1.0,1.0,81,0.00,,,0.00,Wunderground v.1.15,2013-05-20 13:00:00,
2013-05-20 08:10:00,76.1,69.8,29.79,SSE,160,0.0,9.0,81,0.00,,,0.00,Wunderground v.1.15,2013-05-20 13:10:00,
2013-05-20 08:20:00,76.2,69.9,29.79,WSW,254,1.0,9.0,81,0.00,,,0.00,Wunderground v.1.15,2013-05-20 13:20:00,
2013-05-20 08:30:00,76.3,69.7,29.80,ESE,105,1.0,9.0,80,0.00,,,0.00,Wunderground v.1.15,2013-05-20 13:30:00,
2013-05-20 08:40:00,76.4,69.8,29.80,SSW,205,2.0,2.0,80,0.00,,,0.00,Wunderground v.1.15,2013-05-20 13:40:00,
2013-05-20 08:50:00,76.7,70.1,29.80,South,186,1.0,9.0,80,0.00,,,0.00,Wunderground v.1.15,2013-05-20 13:50:00,
2013-05-20 09:00:00,76.8,69.8,29.80,SE,128,1.0,4.0,79,0.00,,,0.00,Wunderground v.1.15,2013-05-20 14:00:00,
2013-05-20 09:10:00,77.1,70.1,29.80,WSW,247,1.0,13.0,79,0.00,,,0.00,Wunderground v.1.15,2013-05-20 14:10:00,
2013-05-20 09:15:00,77.3,70.3,29.80,East,83,1.0,13.0,79,0.00,,,0.00,Wunderground v.1.15,2013-05-20 14:15:00,
2013-05-20 09:25:00,77.6,70.2,29.80,SE,143,2.0,13.0,78,0.00,,,0.00,Wunderground v.1.15,2013-05-20 14:25:00,
2013-05-20 09:35:00,78.0,70.2,29.80,SSW,198,2.0,13.0,77,0.00,,,0.00,Wunderground v.1.15,2013-05-20 14:35:00,
2013-05-20 09:45:00,78.4,70.6,29.80,South,190,1.0,7.0,77,0.00,,,0.00,Wunderground v.1.15,2013-05-20 14:45:00,
2013-05-20 09:55:00,78.7,70.5,29.80,SSW,209,2.0,13.0,76,0.00,,,0.00,Wunderground v.1.15,2013-05-20 14:55:00,
2013-05-20 10:00:00,78.9,70.7,29.80,SW,218,2.0,2.0,76,0.00,,,0.00,Wunderground v.1.15,2013-05-20 15:00:00,
2013-05-20 10:10:00,79.5,70.9,29.80,ESE,114,2.0,2.0,75,0.00,,,0.00,Wunderground v.1.15,2013-05-20 15:10:00,
2013-05-20 10:15:00,79.5,70.9,29.80,SSE,152,2.0,11.0,75,0.00,,,0.00,Wunderground v.1.15,2013-05-20 15:15:00,
2013-05-20 10:25:00,80.2,71.2,29.79,SSW,208,2.0,11.0,74,0.00,,,0.00,Wunderground v.1.15,2013-05-20 15:25:00,
2013-05-20 10:35:00,80.9,71.0,29.79,SE,129,3.0,11.0,72,0.00,,,0.00,Wunderground v.1.15,2013-05-20 15:35:00,
2013-05-20 10:45:00,81.3,71.0,29.79,WSW,238,3.0,11.0,71,0.00,,,0.00,Wunderground v.1.15,2013-05-20 15:45:00,
2013-05-20 10:55:00,81.2,71.3,29.78,WSW,248,2.0,11.0,72,0.00,,,0.00,Wunderground v.1.15,2013-05-20 15:55:00,
2013-05-20 11:00:00,81.8,71.1,29.78,SW,225,3.0,6.0,70,0.00,,,0.00,Wunderground v.1.15,2013-05-20 16:00:00,
2013-05-20 11:10:00,82.1,70.9,29.78,SW,227,2.0,14.0,69,0.00,,,0.00,Wunderground v.1.15,2013-05-20 16:10:00,
2013-05-20 11:15:00,82.3,71.1,29.78,South,182,3.0,14.0,69,0.00,,,0.00,Wunderground v.1.15,2013-05-20 16:15:00,
2013-05-20 11:25:00,82.8,71.2,29.78,WSW,237,3.0,14.0,68,0.00,,,0.00,Wunderground v.1.15,2013-05-20 16:25:00,
2013-05-20 11:35:00,83.2,71.1,29.78,SW,221,3.0,6.0,67,0.00,,,0.00,Wunderground v.1.15,2013-05-20 16:35:00,
2013-05-20 11:45:00,83.2,71.5,29.78,SW,229,2.0,14.0,68,0.00,,,0.00,Wunderground v.1.15,2013-05-20 16:45:00,
2013-05-20 11:55:00,83.0,70.9,29.78,WSW,252,3.0,14.0,67,0.00,,,0.00,Wunderground v.1.15,2013-05-20 16:55:00,
2013-05-20 12:00:00,83.2,71.5,29.78,SW,221,2.0,5.0,68,0.00,,,0.00,Wunderground v.1.15,2013-05-20 17:00:00,
2013-05-20 12:10:00,84.0,71.4,29.78,WSW,253,3.0,13.0,66,0.00,,,0.00,Wunderground v.1.15,2013-05-20 17:10:00,
2013-05-20 12:15:00,84.2,71.6,29.78,WSW,238,4.0,13.0,66,0.00,,,0.00,Wunderground v.1.15,2013-05-20 17:15:00,
2013-05-20 12:20:00,84.4,71.3,29.78,SW,226,4.0,13.0,65,0.00,,,0.00,Wunderground v.1.15,2013-05-20 17:20:00,
2013-05-20 12:30:00,84.8,71.7,29.77,SSW,197,4.0,4.0,65,0.00,,,0.00,Wunderground v.1.15,2013-05-20 17:30:00,
2013-05-20 12:40:00,85.2,71.2,29.77,South,184,4.0,4.0,63,0.00,,,0.00,Wunderground v.1.15,2013-05-20 17:40:00,
2013-05-20 12:45:00,85.4,71.8,29.77,ESE,107,3.0,7.0,64,0.00,,,0.00,Wunderground v.1.15,2013-05-20 17:45:00,
2013-05-20 12:55:00,85.8,71.7,29.76,South,178,3.0,13.0,63,0.00,,,0.00,Wunderground v.1.15,2013-05-20 17:55:00,
2013-05-20 13:00:00,86.1,71.6,29.76,SE,128,3.0,5.0,62,0.00,,,0.00,Wunderground v.1.15,2013-05-20 18:00:00,
2013-05-20 13:10:00,86.4,71.8,29.75,South,177,4.0,13.0,62,0.00,,,0.00,Wunderground v.1.15,2013-05-20 18:10:00,
2013-05-20 13:15:00,86.6,71.5,29.75,East,99,3.0,13.0,61,0.00,,,0.00,Wunderground v.1.15,2013-05-20 18:15:00,
2013-05-20 13:25:00,87.3,72.2,29.75,SSE,159,3.0,13.0,61,0.00,,,0.00,Wunderground v.1.15,2013-05-20 18:25:00,
2013-05-20 13:35:00,87.5,71.9,29.75,SW,229,3.0,13.0,60,0.00,,,0.00,Wunderground v.1.15,2013-05-20 18:35:00,
2013-05-20 13:45:00,87.6,72.0,29.75,WSW,254,3.0,7.0,60,0.00,,,0.00,Wunderground v.1.15,2013-05-20 18:45:00,
2013-05-20 13:55:00,88.0,72.4,29.74,SSE,163,3.0,6.0,60,0.00,,,0.00,Wunderground v.1.15,2013-05-20 18:55:00,
2013-05-20 14:00:00,88.1,72.0,29.74,ESE,107,3.0,6.0,59,0.00,,,0.00,Wunderground v.1.15,2013-05-20 19:00:00,
2013-05-20 14:10:00,88.8,72.6,29.74,South,176,2.0,2.0,59,0.00,,,0.00,Wunderground v.1.15,2013-05-20 19:10:00,
2013-05-20 14:15:00,89.3,72.6,29.74,SSE,153,1.0,7.0,58,0.00,,,0.00,Wunderground v.1.15,2013-05-20 19:15:00,
2013-05-20 14:25:00,88.9,72.2,29.73,WSW,250,3.0,14.0,58,0.00,,,0.00,Wunderground v.1.15,2013-05-20 19:25:00,
2013-05-20 14:35:00,88.6,72.4,29.73,SSE,157,2.0,14.0,59,0.00,,,0.00,Wunderground v.1.15,2013-05-20 19:35:00,
2013-05-20 14:45:00,88.9,72.7,29.73,SSW,194,3.0,6.0,59,0.00,,,0.00,Wunderground v.1.15,2013-05-20 19:45:00,
2013-05-20 14:55:00,89.1,72.4,29.73,SSW,192,3.0,14.0,58,0.00,,,0.00,Wunderground v.1.15,2013-05-20 19:55:00,
2013-05-20 15:00:00,88.9,72.7,29.72,SW,222,3.0,3.0,59,0.00,,,0.00,Wunderground v.1.15,2013-05-20 20:00:00,
2013-05-20 15:10:00,89.8,73.0,29.72,WSW,246,3.0,3.0,58,0.00,,,0.00,Wunderground v.1.15,2013-05-20 20:10:00,
2013-05-20 15:15:00,90.0,72.7,29.71,South,178,3.0,13.0,57,0.00,,,0.00,Wunderground v.1.15,2013-05-20 20:15:00,
2013-05-20 15:20:00,89.7,72.4,29.70,SE,142,3.0,13.0,57,0.00,,,0.00,Wunderground v.1.15,2013-05-20 20:20:00,
2013-05-20 15:30:00,88.9,72.2,29.69,SW,229,4.0,13.0,58,0.00,,,0.00,Wunderground v.1.15,2013-05-20 20:30:00,
2013-05-20 15:40:00,88.5,71.8,29.69,South,188,4.0,4.0,58,0.00,,,0.00,Wunderground v.1.15,2013-05-20 20:40:00,
2013-05-20 15:45:00,88.8,72.1,29.68,SE,135,3.0,13.0,58,0.00,,,0.00,Wunderground v.1.15,2013-05-20 20:45:00,
2013-05-20 15:55:00,88.8,72.1,29.68,SSW,211,3.0,13.0,58,0.00,,,0.00,Wunderground v.1.15,2013-05-20 20:55:00,
2013-05-20 16:00:00,89.0,71.8,29.67,SSW,194,3.0,3.0,57,0.00,,,0.00,Wunderground v.1.15,2013-05-20 21:00:00,
2013-05-20 16:10:00,89.3,72.1,29.66,South,183,3.0,3.0,57,0.00,,,0.00,Wunderground v.1.15,2013-05-20 21:10:00,
2013-05-20 16:20:00,89.3,72.1,29.66,NE,51,3.0,13.0,57,0.00,,,0.00,Wunderground v.1.15,2013-05-20 21:20:00,
2013-05-20 16:30:00,89.6,72.3,29.66,West,269,2.0,2.0,57,0.00,,,0.00,Wunderground v.1.15,2013-05-20 21:30:00,
2013-05-20 16:40:00,89.2,72.5,29.65,South,187,3.0,13.0,58,0.00,,,0.00,Wunderground v.1.15,2013-05-20 21:40:00,
2013-05-20 16:45:00,89.2,72.0,29.65,East,82,3.0,13.0,57,0.00,,,0.00,Wunderground v.1.15,2013-05-20 21:45:00,
2013-05-20 16:50:00,89.3,72.1,29.65,SSW,203,3.0,3.0,57,0.00,,,0.00,Wunderground v.1.15,2013-05-20 21:50:00,
2013-05-20 17:00:00,89.4,71.6,29.66,South,185,3.0,4.0,56,0.00,,,0.00,Wunderground v.1.15,2013-05-20 22:00:00,
2013-05-20 17:10:00,89.6,71.8,29.66,SSW,201,3.0,3.0,56,0.00,,,0.00,Wunderground v.1.15,2013-05-20 22:10:00,
2013-05-20 17:20:00,89.0,71.3,29.67,SSW,201,3.0,3.0,56,0.00,,,0.00,Wunderground v.1.15,2013-05-20 22:20:00,
2013-05-20 17:30:00,88.9,71.2,29.68,SSW,204,2.0,2.0,56,0.00,,,0.00,Wunderground v.1.15,2013-05-20 22:30:00,
2013-05-20 17:40:00,88.4,70.7,29.67,SSE,167,2.0,2.0,56,0.00,,,0.00,Wunderground v.1.15,2013-05-20 22:40:00,
2013-05-20 17:50:00,88.0,71.4,29.66,SSW,193,2.0,2.0,58,0.00,,,0.00,Wunderground v.1.15,2013-05-20 22:50:00,
2013-05-20 18:00:00,87.3,71.2,29.68,SSE,154,1.0,1.0,59,0.00,,,0.00,Wunderground v.1.15,2013-05-20 23:00:00,
2013-05-20 18:10:00,87.2,71.1,29.66,SSE,165,2.0,13.0,59,0.00,,,0.00,Wunderground v.1.15,2013-05-20 23:10:00,
2013-05-20 18:20:00,86.8,71.2,29.68,SSW,203,2.0,2.0,60,0.00,,,0.00,Wunderground v.1.15,2013-05-20 23:20:00,
2013-05-20 18:25:00,86.8,71.2,29.69,SSW,195,1.0,13.0,60,0.00,,,0.00,Wunderground v.1.15,2013-05-20 23:25:00,
2013-05-20 18:30:00,86.7,71.2,29.68,SSW,200,2.0,2.0,60,0.00,,,0.00,Wunderground v.1.15,2013-05-20 23:30:00,
2013-05-20 18:40:00,86.4,71.4,29.65,ENE,57,2.0,2.0,61,0.00,,,0.00,Wunderground v.1.15,2013-05-20 23:40:00,
2013-05-20 18:50:00,86.4,71.4,29.65,WSW,246,2.0,13.0,61,0.00,,,0.00,Wunderground v.1.15,2013-05-20 23:50:00,
2013-05-20 18:55:00,86.3,71.3,29.65,ENE,71,1.0,13.0,61,0.00,,,0.00,Wunderground v.1.15,2013-05-20 23:55:00,
2013-05-20 19:00:00,86.2,71.2,29.65,SE,128,2.0,2.0,61,0.00,,,0.00,Wunderground v.1.15,2013-05-21 00:00:00,
2013-05-20 19:10:00,86.1,71.1,29.64,SE,130,3.0,11.0,61,0.00,,,0.00,Wunderground v.1.15,2013-05-21 00:10:00,
2013-05-20 19:20:00,86.0,71.5,29.64,SSE,161,2.0,2.0,62,0.00,,,0.00,Wunderground v.1.15,2013-05-21 00:20:00,
2013-05-20 19:30:00,85.9,70.9,29.62,SSE,148,3.0,3.0,61,0.00,,,0.00,Wunderground v.1.15,2013-05-21 00:30:00,
2013-05-20 19:40:00,85.6,71.1,29.63,ESE,121,2.0,2.0,62,0.00,,,0.00,Wunderground v.1.15,2013-05-21 00:40:00,
2013-05-20 19:50:00,85.3,71.3,29.63,SSE,150,1.0,1.0,63,0.00,,,0.00,Wunderground v.1.15,2013-05-21 00:50:00,
2013-05-20 19:55:00,85.2,71.2,29.64,South,184,2.0,3.0,63,0.00,,,0.00,Wunderground v.1.15,2013-05-21 00:55:00,
2013-05-20 20:00:00,85.1,71.1,29.65,ESE,123,2.0,2.0,63,0.00,,,0.00,Wunderground v.1.15,2013-05-21 01:00:00,
2013-05-20 20:10:00,85.1,71.1,29.64,South,177,1.0,16.0,63,0.00,,,0.00,Wunderground v.1.15,2013-05-21 01:10:00,
2013-05-20 20:20:00,85.0,71.0,29.65,SSE,148,2.0,16.0,63,0.00,,,0.00,Wunderground v.1.15,2013-05-21 01:20:00,
2013-05-20 20:30:00,84.9,70.9,29.65,SE,139,2.0,2.0,63,0.00,,,0.00,Wunderground v.1.15,2013-05-21 01:30:00,
2013-05-20 20:40:00,84.9,70.9,29.65,ESE,112,2.0,16.0,63,0.00,,,0.00,Wunderground v.1.15,2013-05-21 01:40:00,
2013-05-20 20:50:00,84.7,71.2,29.65,SSE,147,3.0,3.0,64,0.00,,,0.00,Wunderground v.1.15,2013-05-21 01:50:00,
2013-05-20 21:00:00,84.5,71.0,29.67,SE,124,2.0,2.0,64,0.00,,,0.00,Wunderground v.1.15,2013-05-21 02:00:00,
2013-05-20 21:10:00,84.5,71.0,29.67,ESE,122,2.0,2.0,64,0.00,,,0.00,Wunderground v.1.15,2013-05-21 02:10:00,
2013-05-20 21:20:00,84.4,70.9,29.67,SE,135,1.0,1.0,64,0.00,,,0.00,Wunderground v.1.15,2013-05-21 02:20:00,
2013-05-20 21:30:00,84.3,70.8,29.69,ESE,111,1.0,1.0,64,0.00,,,0.00,Wunderground v.1.15,2013-05-21 02:30:00,
2013-05-20 21:40:00,84.6,71.1,29.72,West,280,0.0,11.0,64,0.00,,,0.00,Wunderground v.1.15,2013-05-21 02:40:00,
2013-05-20 21:50:00,84.7,71.2,29.74,NW,310,1.0,1.0,64,0.00,,,0.00,Wunderground v.1.15,2013-05-21 02:50:00,
2013-05-20 22:00:00,84.5,71.4,29.72,NW,310,0.0,0.0,65,0.00,,,0.00,Wunderground v.1.15,2013-05-21 03:00:00,
2013-05-20 22:10:00,84.0,71.0,29.71,NW,304,0.0,12.0,65,0.00,,,0.00,Wunderground v.1.15,2013-05-21 03:10:00,
2013-05-20 22:20:00,84.0,71.0,29.70,SE,139,0.0,12.0,65,0.00,,,0.00,Wunderground v.1.15,2013-05-21 03:20:00,
2013-05-20 22:30:00,84.0,71.0,29.70,ESE,110,0.0,12.0,65,0.00,,,0.00,Wunderground v.1.15,2013-05-21 03:30:00,
2013-05-20 22:40:00,83.9,71.3,29.71,ESE,121,0.0,12.0,66,0.00,,,0.00,Wunderground v.1.15,2013-05-21 03:40:00,
2013-05-20 22:50:00,83.7,71.1,29.70,SE,141,0.0,12.0,66,0.00,,,0.00,Wunderground v.1.15,2013-05-21 03:50:00,
2013-05-20 23:00:00,83.4,71.3,29.69,SE,132,0.0,2.0,67,0.00,,,0.00,Wunderground v.1.15,2013-05-21 04:00:00,
2013-05-20 23:05:00,83.2,71.1,29.68,ESE,107,0.0,4.0,67,0.00,,,0.00,Wunderground v.1.15,2013-05-21 04:05:00,
2013-05-20 23:10:00,83.1,70.6,29.68,ESE,108,1.0,10.0,66,0.00,,,0.00,Wunderground v.1.15,2013-05-21 04:10:00,
2013-05-20 23:20:00,83.4,69.9,29.69,ENE,74,1.0,1.0,64,0.00,,,0.00,Wunderground v.1.15,2013-05-21 04:20:00,
2013-05-20 23:30:00,83.4,69.9,29.70,SSW,212,0.0,10.0,64,0.00,,,0.00,Wunderground v.1.15,2013-05-21 04:30:00,
2013-05-20 23:35:00,83.4,69.9,29.70,SE,126,0.0,10.0,64,0.00,,,0.00,Wunderground v.1.15,2013-05-21 04:35:00,
2013-05-20 23:40:00,83.4,69.5,29.70,SSE,167,0.0,12.0,63,0.00,,,0.00,Wunderground v.1.15,2013-05-21 04:40:00,
2013-05-20 23:50:00,83.8,70.8,29.67,South,170,4.0,10.0,65,0.00,,,0.00,Wunderground v.1.15,2013-05-21 04:50:00,